Flag for U.S.A. Weather past 2 weeks in Sedona, Arizona, U.S.A.

Now
73 °F

Clear.


Feels Like: 76 °F
Forecast: 59 / 79 °F
Wind: No wind

Location: Sedona Airport

Current Time: Oct 24, 2014 at 6:48:39 PM

Latest Report: Oct 24, 2014 at 6:15 PM


Visibility: 10 mi

Pressure: 30.20 "Hg

Humidity: 23%

Dew point: 34 °F

Location of SedonaLocation

Historic Weather in Sedona — Graph

°F

Sedona temperature yesterday

Maximum temperature yesterday: 81 °F (at 12:15 PM)
Minimum temperature yesterday: 57 °F (at 3:15 AM)
Average temperature yesterday: 68 °F

Past Weeks' High & Low Weather Summary

 TemperatureHumidityPressure
High82 °F (Oct 16, 1:55 PM)88% (Oct 10, 2:15 AM)30.30 "Hg (Oct 10, 2:15 AM)
Low54 °F (Oct 10, 5:55 AM)11% (Oct 12, 4:15 PM)29.94 "Hg (Oct 12, 2:15 PM)
Average66 °F37%30.12 "Hg
* Reported Oct 9 5:15 PM — Oct 24 5:55 PM, Sedona, Weather by CustomWeather, © 2014

Note: Actual official high and low records may vary slightly from our data, if they occured in-between our weather recording intervals... More about our weather records

Advertising

Sedona weather history for previous 24 hours

 ConditionsComfort  
Time TempWeatherWind HumidityBarometerVisibility
5:55 PM
Oct 24
73 °FClear.No wind23%30.19 "Hg10 mi
5:15 PM79 °FSunny.3 mph20%30.19 "Hg10 mi
4:55 PM79 °FSunny.3 mph18%30.19 "Hg10 mi
4:15 PM81 °FSunny.5 mph17%30.20 "Hg10 mi
3:55 PM81 °FSunny.9 mph17%30.20 "Hg10 mi
3:35 PM82 °FSunny.6 mph16%30.20 "Hg10 mi
3:15 PM81 °FSunny.No wind17%30.21 "Hg10 mi
2:55 PM82 °FSunny.7 mph16%30.21 "Hg10 mi
2:15 PM82 °FSunny.5 mph16%30.21 "Hg10 mi
1:55 PM82 °FSunny.7 mph16%30.22 "Hg10 mi
1:35 PM82 °FSunny.10 mph14%30.23 "Hg10 mi
1:15 PM82 °FSunny.9 mph15%30.23 "Hg10 mi
12:55 PM82 °FSunny.9 mph16%30.24 "Hg10 mi
12:35 PM81 °FSunny.6 mph20%30.25 "Hg10 mi
12:15 PM81 °FSunny.8 mph20%30.27 "Hg10 mi
11:55 AM79 °FSunny.7 mph23%30.27 "Hg10 mi
11:15 AM81 °FSunny.5 mph21%30.29 "Hg10 mi
10:55 AM77 °FSunny.5 mph26%30.30 "Hg10 mi
10:35 AM73 °FSunny.6 mph29%30.30 "Hg10 mi
10:15 AM73 °FSunny.6 mph31%30.30 "Hg10 mi
9:55 AM72 °FSunny.3 mph31%30.30 "Hg10 mi
9:35 AM70 °FSunny.No wind33%30.30 "Hg10 mi
9:15 AM70 °FSunny.No wind33%30.30 "Hg10 mi
8:35 AM66 °FSunny.7 mph35%30.29 "Hg10 mi
8:15 AM64 °FSunny.8 mph37%30.28 "Hg10 mi
7:55 AM63 °FSunny.7 mph39%30.28 "Hg10 mi
7:35 AM61 °FSunny.9 mph42%30.27 "Hg10 mi
7:15 AM61 °FSunny.10 mph42%30.26 "Hg10 mi
6:55 AM59 °FSunny.12 mph45%30.25 "Hg10 mi
6:35 AM59 °FClear.12 mph45%30.25 "Hg10 mi
6:15 AM59 °FClear.9 mph45%30.25 "Hg10 mi
5:55 AM59 °FClear.7 mph45%30.24 "Hg10 mi
5:35 AM61 °FClear.8 mph39%30.24 "Hg10 mi
5:15 AM59 °FClear.9 mph42%30.23 "Hg10 mi
4:55 AM61 °FClear.13 mph39%30.23 "Hg10 mi
4:35 AM61 °FClear.12 mph39%30.23 "Hg10 mi
4:15 AM61 °FClear.14 mph39%30.23 "Hg10 mi
3:55 AM61 °FClear.13 mph39%30.22 "Hg10 mi
3:35 AM61 °FClear.12 mph39%30.22 "Hg10 mi
3:15 AM61 °FClear.14 mph39%30.22 "Hg10 mi
2:55 AM61 °FClear.12 mph42%30.23 "Hg10 mi
2:35 AM61 °FClear.12 mph42%30.23 "Hg10 mi
2:15 AM61 °FClear.13 mph42%30.23 "Hg10 mi
1:55 AM61 °FClear.13 mph42%30.23 "Hg10 mi
1:35 AM61 °FClear.13 mph42%30.23 "Hg10 mi
1:15 AM61 °FClear.13 mph39%30.23 "Hg10 mi
12:55 AM61 °FClear.13 mph39%30.23 "Hg10 mi
12:35 AM61 °FClear.13 mph39%30.23 "Hg10 mi
12:15 AM61 °FClear.13 mph39%30.23 "Hg10 mi
11:55 PM
Oct 23
63 °FClear.12 mph37%30.23 "Hg10 mi
11:35 PM63 °FClear.12 mph37%30.23 "Hg10 mi
11:15 PM63 °FClear.10 mph37%30.23 "Hg10 mi
10:55 PM63 °FClear.10 mph37%30.23 "Hg10 mi
10:35 PM64 °FClear.12 mph34%30.23 "Hg10 mi
10:15 PM63 °FClear.12 mph37%30.23 "Hg10 mi
9:55 PM64 °FClear.12 mph34%30.22 "Hg10 mi
9:15 PM64 °FClear.12 mph37%30.22 "Hg10 mi
8:55 PM64 °FClear.10 mph34%30.22 "Hg10 mi
8:15 PM68 °FClear.5 mph30%30.21 "Hg10 mi
7:35 PM70 °FClear.No wind29%30.21 "Hg10 mi
7:15 PM72 °FClear.5 mph27%30.20 "Hg10 mi
6:55 PM72 °FClear.5 mph27%30.20 "Hg10 mi
6:35 PM72 °FClear.No wind27%30.19 "Hg10 mi
6:15 PM73 °FClear.No wind25%30.18 "Hg10 mi
Weather by CustomWeather, © 2014

See weather overviewHow to use our weather pages